Location: Mascot Post Office (historical)
(40.2645°N, 99.5462°W)
Time: 17:10:16
(UTC+00:00)

Cosmos 2154 Rocket - Pass Details

Date: 14 July 2020
Orbit: 967 x 996 km, 82.9° (Epoch: 04 August)

Event Time Altitude Azimuth Distance (km) Brightness Sun altitude
Exits shadow 04:25:34 23° 191° (S) 1,921 5.2 -20.2°
Maximum altitude 04:29:37 81° 276° (W) 985 4.0 -20.7°
Drops below altitude 10° 04:35:53 10° 5° (N) 2,727 7.1 -21.3°
Sets 04:38:24 0° 7° (N) 3,682 7.8 -21.6°
